Regional Weather Roundup
Issued by NWS Albany, NY

Home | Current Version | Previous Version | Text Only | Print | Product List | Glossary On
Versions: 1 2 3 4 5 6 7 8 9 10 11 12 13 14 15 16 17 18 19 20 21 22 23 24 25 26 27 28 29 30 31 32 33 34 35 36 37 38 39 40 41 42 43 44 45 46 47 48 49 50
689
ASUS41 KALY 090810
RWRALY

NEW YORK STATE HOURLY WEATHER ROUNDUP
NATIONAL WEATHER SERVICE ALBANY NY
300 AM EST MON DEC 09 2019

NOTE: "FAIR" INDICATES FEW OR NO CLOUDS BELOW 12,000 FEET WITH NO
SIGNIFICANT WEATHER AND/OR NO OBSTRUCTIONS TO VISIBILITY.

NYZ032-033-038>043-046>054-057>066-NYZ062>081-082-084-090900-
EAST


CITY           SKY/WX    TMP DP  RH WIND       PRES   REMARKS
ALBANY         CLOUDY    39  28  64 S10G20    30.20S WCI  32
GLENS FALLS    CLOUDY   N/A N/A N/A W5        30.19S
POUGHKEEPSIE   CLOUDY    31  27  85 CALM      30.27F
NEWBURGH       CLOUDY    34  30  86 CALM      30.26F
MONTGOMERY     CLOUDY    28  23  81 CALM      30.25F
WHITE PLAINS   LGT RAIN  38  36  92 CALM      30.25F VSB 1/2
ISLIP          LGT RAIN  45  44  97 CALM      30.27F FOG
NEW YORK CITY  LGT RAIN  43  40  89 CALM      30.27F FOG
CENTRAL PARK   LGT RAIN  42  41  96 NW5       30.29F FOG
$$

NYZ005>009-017-018-044>046-055-056-090900-
CENTRAL


CITY           SKY/WX    TMP DP  RH WIND       PRES   REMARKS
FULTON         MOCLDY    41  25  53 S13       30.06S
SYRACUSE       CLOUDY    41  27  57 S10       30.07F
ROME           CLOUDY    39  30  70 SE7       30.13F WCI  34
ELMIRA         CLOUDY    38  27  64 SE5       30.11F WCI  34
BINGHAMTON     CLOUDY    35  29  78 S7        30.11F WCI  29
MONTICELLO     CLOUDY    31  27  85 E6        30.21F WCI  25
$$

NYZ026>034-041>043-087-090900-
NORTH


CITY           SKY/WX    TMP DP  RH WIND       PRES   REMARKS
WATERTOWN      CLOUDY    42  28  57 S12G23    30.02R
FORT DRUM      NOT AVBL
OGDENSBURG     CLOUDY    36  32  87 S10G17    29.99S WCI  28
MASSENA        LGT RAIN  40  31  70 S12       30.02S WCI  33
SARANAC LAKE   CLOUDY    34  24  67 SW12      30.02R WCI  25
PLATTSBURGH    CLOUDY    35  23  61 SE9       30.09S WCI  28
$$

NYZ001>004-010>016-019>021-085-090900-
WEST


CITY           SKY/WX    TMP DP  RH WIND       PRES   REMARKS
NIAGARA FALLS  CLOUDY    45  34  65 S8        29.94F
BUFFALO        CLOUDY    45  32  60 S13       29.95F
DUNKIRK        MOCLDY    48  31  51 S20G32    29.96F
JAMESTOWN      MOCLDY    40  29  64 S10       29.98F WCI  33
WELLSVILLE     CLOUDY    36  22  56 S10G17    30.04F WCI  28
ROCHESTER      CLOUDY    41  26  55 S12       30.00F
PENN YAN       CLOUDY    39  25  57 S14       30.06S WCI  31
$$

             KEY
       WCI = WIND CHILL INDEX
       VSB = VISIBILITY
       HX  = HEAT INDEX
$$




USA.gov is the U.S. government's official web portal to all federal, state and local government web resources and services.